Starlink 31980

operational
NORAD ID: 59962 Int'l Des: 2024-107 Owner: SPXS Country: US Constellation: starlink
LEOCIRCULAR

About Starlink 31980

Description loading...

Live Position

Loading 3D Globe...

Upcoming Passes

Altitude History

Altitude vs Time

uPlot chart will show altitude changes over time

Two-Line Element Set

1 59962U 24107T 25354.51875339 -.00000040 00000-0 10768-4 0 9996
2 59962 53.1603 73.3694 0001017 81.3683 278.7433 15.30192596 87674
Epoch: Dec 20, 2025 • Age: 14 hours

Current Status

Altitude 490.9 km
Velocity 7.62 km/s
Sub-Earth Point -44.56°S, 177.46°E
Launch Date Jun 5, 2024
Age 1.5 years
Type internet

Technical Details

Classification Payload
Mass 730.00 kg
Dry Mass 700.00 kg
Total Mass 730.00 kg
Length 0.30 m
Diameter 4.10 m
Span 29.00 m
Shape Box + pan
Manufacturer SPXS
Bus Type Starlink V2M
Phase Status In Orbit
Owner/State SPXS/US

Large Constellations

Loading constellations...